QPF
0.10 0.13 0.15 0.16 0.16 0.14 0.15 0.13 0.12 0.12 0.12 0.09 0.06 0.07 0.08 0.07 0.07 0.05 0.04 0.04 0.04 0.03 0.03 0.02 0.01 0.02 0.01 0.02 0.02 0.01 0.01 0.01 0.00 0.00 0.00 0.00 0.00 0.00 0.00 0.00 0.00 0.00 0.00
0.13 0.19 0.18 0.17 0.17 0.13 0.13 0.15 0.16 0.14 0.14 0.13 0.11 0.10 0.10 0.08 0.07 0.06 0.05 0.06 0.04 0.04 0.04 0.03 0.02 0.03 0.02 0.02 0.02 0.01 0.01 0.01 0.01 0.00 0.00 0.00 0.00 0.00 0.00 0.00 0.00 0.00 0.00
0.12 0.15 0.15 0.13 0.11 0.09 0.09 0.12 0.14 0.14 0.14 0.15 0.13 0.10 0.09 0.07 0.07 0.07 0.07 0.06 0.05 0.06 0.07 0.07 0.05 0.04 0.02 0.01 0.01 0.01 0.01 0.01 0.01 0.01 0.01 0.01 0.01 0.01 0.00 0.00 0.00 0.00 0.00
0.11 0.10 0.10 0.09 0.09 0.09 0.10 0.11 0.11 0.12 0.13 0.14 0.14 0.12 0.09 0.09 0.10 0.10 0.08 0.06 0.06 0.05 0.05 0.05 0.04 0.04 0.03 0.02 0.01 0.01 0.01 0.01 0.01 0.01 0.01 0.01 0.01 0.00 0.00 0.00 0.00 0.00 0.00
0.10 0.08 0.07 0.09 0.09 0.09 0.10 0.12 0.15 0.14 0.15 0.15 0.14 0.13 0.12 0.11 0.12 0.13 0.10 0.07 0.06 0.05 0.05 0.04 0.04 0.04 0.03 0.03 0.02 0.03 0.03 0.03 0.02 0.01 0.01 0.01 0.00 0.00 0.00 0.00 0.00 0.00 0.00
0.09 0.08 0.07 0.07 0.07 0.08 0.10 0.10 0.12 0.12 0.12 0.15 0.15 0.13 0.12 0.10 0.11 0.12 0.11 0.10 0.09 0.07 0.06 0.05 0.05 0.05 0.05 0.05 0.05 0.05 0.04 0.04 0.03 0.02 0.01 0.01 0.01 0.00 0.00 0.00 0.00 0.00 0.00
0.06 0.06 0.07 0.08 0.08 0.09 0.10 0.11 0.12 0.12 0.13 0.15 0.18 0.16 0.15 0.14 0.13 0.13 0.13 0.12 0.11 0.09 0.09 0.07 0.06 0.06 0.06 0.05 0.04 0.04 0.04 0.04 0.04 0.03 0.02 0.02 0.01 0.01 0.01 0.01 0.01 0.01 0.00
0.08 0.09 0.11 0.14 0.13 0.11 0.10 0.13 0.15 0.15 0.14 0.16 0.17 0.14 0.13 0.13 0.12 0.10 0.10 0.10 0.10 0.10 0.09 0.08 0.07 0.06 0.05 0.04 0.03 0.02 0.02 0.02 0.03 0.03 0.02 0.02 0.02 0.02 0.01 0.01 0.01 0.00 0.00
0.10 0.13 0.15 0.15 0.14 0.11 0.12 0.14 0.13 0.12 0.13 0.14 0.15 0.14 0.10 0.09 0.09 0.08 0.08 0.07 0.06 0.06 0.07 0.07 0.06 0.05 0.05 0.04 0.03 0.02 0.02 0.02 0.02 0.02 0.02 0.01 0.01 0.01 0.01 0.01 0.01 0.01 0.01
0.10 0.10 0.11 0.10 0.09 0.11 0.11 0.13 0.15 0.12 0.12 0.15 0.14 0.12 0.10 0.10 0.10 0.10 0.09 0.08 0.07 0.06 0.07 0.07 0.05 0.05 0.05 0.05 0.04 0.03 0.02 0.02 0.01 0.01 0.01 0.01 0.01 0.01 0.01 0.01 0.01 0.02 0.01
0.08 0.06 0.06 0.07 0.10 0.13 0.13 0.14 0.15 0.12 0.11 0.12 0.12 0.10 0.09 0.09 0.10 0.10 0.09 0.09 0.10 0.09 0.09 0.08 0.08 0.08 0.06 0.05 0.03 0.02 0.01 0.01 0.01 0.01 0.01 0.01 0.01 0.01 0.01 0.01 0.01 0.02 0.02
0.06 0.06 0.07 0.08 0.11 0.16 0.19 0.18 0.19 0.17 0.13 0.11 0.11 0.10 0.10 0.10 0.10 0.09 0.09 0.10 0.12 0.13 0.12 0.11 0.09 0.08 0.05 0.04 0.03 0.03 0.02 0.02 0.01 0.01 0.01 0.01 0.01 0.01 0.01 0.01 0.01 0.02 0.03
0.05 0.05 0.07 0.09 0.10 0.11 0.13 0.13 0.13 0.12 0.11 0.09 0.08 0.08 0.09 0.09 0.07 0.06 0.05 0.05 0.05 0.06 0.08 0.10 0.09 0.09 0.08 0.07 0.06 0.05 0.03 0.02 0.02 0.01 0.01 0.01 0.01 0.01 0.01 0.01 0.01 0.02 0.02
0.08 0.08 0.08 0.09 0.11 0.10 0.09 0.10 0.10 0.10 0.09 0.06 0.06 0.05 0.05 0.05 0.05 0.04 0.03 0.03 0.03 0.03 0.03 0.03 0.03 0.04 0.04 0.03 0.03 0.02 0.02 0.02 0.02 0.02 0.01 0.01 0.01 0.01 0.01 0.01 0.01 0.01 0.01
0.08 0.08 0.10 0.11 0.12 0.13 0.12 0.11 0.10 0.10 0.10 0.09 0.07 0.06 0.06 0.05 0.05 0.04 0.03 0.03 0.03 0.03 0.02 0.02 0.02 0.02 0.02 0.01 0.01 0.01 0.01 0.01 0.01 0.01 0.01 0.01 0.01 0.00 0.00 0.00 0.00 0.00 0.01
0.06 0.06 0.07 0.09 0.10 0.10 0.11 0.11 0.09 0.08 0.08 0.07 0.07 0.07 0.06 0.06 0.05 0.04 0.04 0.04 0.04 0.04 0.03 0.02 0.02 0.01 0.01 0.00 0.00 0.01 0.01 0.01 0.01 0.00 0.00 0.00 0.00 0.00 0.00 0.00 0.00 0.00 0.00
0.06 0.06 0.06 0.07 0.09 0.11 0.12 0.11 0.09 0.08 0.07 0.06 0.05 0.05 0.06 0.05 0.05 0.04 0.04 0.05 0.05 0.06 0.05 0.05 0.04 0.03 0.02 0.01 0.01 0.01 0.01 0.01 0.01 0.01 0.00 0.00 0.00 0.00 0.00 0.00 0.00 0.00 0.01
0.04 0.05 0.05 0.05 0.06 0.08 0.09 0.09 0.08 0.07 0.07 0.06 0.05 0.04 0.03 0.03 0.02 0.02 0.02 0.01 0.01 0.01 0.02 0.03 0.03 0.03 0.02 0.02 0.01 0.01 0.01 0.00 0.00 0.00 0.00 0.00 0.00 0.00 0.00 0.00 0.00 0.00 0.01
0.04 0.03 0.03 0.03 0.03 0.04 0.04 0.04 0.04 0.04 0.04 0.03 0.03 0.02 0.01 0.00 0.00 0.00 0.00 0.00 0.00 0.00 0.01 0.01 0.01 0.02 0.02 0.01 0.01 0.01 0.00 0.00 0.00 0.00 0.00 0.00 0.00 0.00 0.00 0.00 0.00 0.00 0.00
0.01 0.02 0.02 0.02 0.03 0.03 0.03 0.03 0.02 0.02 0.01 0.01 0.00 0.00 0.00 0.00 0.00 0.00 0.00 0.00 0.00 0.00 0.00 0.00 0.00 0.00 0.00 0.00 0.00 0.00 0.00 0.00 0.00 0.00 0.00 0.00 0.00 0.00 0.00 0.00 0.00 0.00 0.00
0.00 0.00 0.01 0.01 0.02 0.02 0.02 0.02 0.01 0.01 0.01 0.00 0.00 0.00 0.00 0.00 0.00 0.00 0.00 0.00 0.00 0.00 0.00 0.00 0.00 0.00 0.00 0.00 0.00 0.00 0.00 0.00 0.00 0.00 0.00 0.00 0.00 0.00 0.00 0.00 0.00 0.00 0.00
0.00 0.00 0.00 0.00 0.00 0.00 0.00 0.00 0.00 0.00 0.00 0.00 0.00 0.00 0.00 0.00 0.00 0.00 0.00 0.00 0.00 0.00 0.00 0.00 0.00 0.00 0.00 0.00 0.00 0.00 0.00 0.00 0.00 0.00 0.00 0.00 0.00 0.00 0.00 0.00 0.00 0.00 0.00
0.00 0.00 0.00 0.00 0.00 0.00 0.00 0.00 0.00 0.00 0.00 0.00 0.00 0.00 0.00 0.00 0.00 0.00 0.00 0.00 0.00 0.00 0.00 0.00 0.00 0.00 0.00 0.00 0.00 0.00 0.00 0.00 0.00 0.00 0.00 0.00 0.00 0.00 0.00 0.00 0.00 0.00 0.00
0.00 0.00 0.00 0.00 0.00 0.00 0.00 0.00 0.00 0.00 0.00 0.00 0.00 0.00 0.00 0.00 0.00 0.00 0.00 0.00 0.00 0.00 0.00 0.00 0.00 0.00 0.00 0.00 0.00 0.00 0.00 0.00 0.00 0.00 0.00 0.00 0.00 0.00 0.00 0.00 0.00 0.00 0.00
0.00 0.00 0.00 0.00 0.00 0.00 0.00 0.00 0.00 0.00 0.00 0.00 0.00 0.00 0.00 0.00 0.00 0.00 0.00 0.00 0.00 0.00 0.00 0.00 0.00 0.00 0.00 0.00 0.00 0.00 0.00 0.00 0.00 0.00 0.00 0.00 0.00 0.00 0.00 0.00 0.01 0.01 0.01
0.00 0.00 0.00 0.00 0.00 0.00 0.00 0.00 0.01 0.00 0.00 0.00 0.00 0.00 0.00 0.00 0.00 0.00 0.00 0.00 0.00 0.00 0.00 0.00 0.00 0.00 0.00 0.00 0.00 0.00 0.00 0.00 0.00 0.00 0.00 0.00 0.00 0.00 0.00 0.00 0.01 0.01 0.01
MSLP
1010.41 1010.94 1011.55 1012.18 1012.80 1013.36 1013.84 1014.27 1014.65 1015.01 1015.39 1015.80 1016.24 1016.70 1017.16 1017.61 1018.02 1018.37 1018.67 1018.92 1019.14 1019.33 1019.52 1019.70 1019.89 1020.07 1020.24 1020.38 1020.48 1020.53 1020.52 1020.47 1020.36 1020.21 1020.04 1019.84 1019.64 1019.45 1019.28 1019.15 1019.06 1019.01 1019.03
1010.29 1010.80 1011.38 1011.99 1012.60 1013.15 1013.64 1014.08 1014.48 1014.86 1015.24 1015.65 1016.08 1016.52 1016.97 1017.39 1017.77 1018.10 1018.36 1018.57 1018.75 1018.89 1019.03 1019.18 1019.34 1019.50 1019.68 1019.84 1019.99 1020.10 1020.18 1020.20 1020.18 1020.10 1019.98 1019.83 1019.65 1019.46 1019.27 1019.11 1018.97 1018.89 1018.85
1010.32 1010.82 1011.39 1011.98 1012.56 1013.09 1013.56 1013.98 1014.37 1014.73 1015.10 1015.48 1015.89 1016.30 1016.71 1017.09 1017.43 1017.72 1017.94 1018.11 1018.24 1018.35 1018.45 1018.57 1018.71 1018.87 1019.06 1019.26 1019.46 1019.65 1019.81 1019.93 1019.99 1020.00 1019.96 1019.86 1019.72 1019.55 1019.36 1019.18 1019.02 1018.90 1018.81
1010.52 1011.03 1011.58 1012.15 1012.68 1013.17 1013.60 1013.98 1014.32 1014.65 1014.98 1015.32 1015.68 1016.04 1016.40 1016.74 1017.03 1017.28 1017.46 1017.59 1017.69 1017.77 1017.85 1017.95 1018.08 1018.25 1018.46 1018.71 1018.96 1019.22 1019.46 1019.67 1019.83 1019.93 1019.96 1019.93 1019.84 1019.71 1019.55 1019.38 1019.21 1019.05 1018.92
1010.84 1011.36 1011.90 1012.43 1012.92 1013.35 1013.72 1014.04 1014.33 1014.60 1014.88 1015.17 1015.48 1015.79 1016.10 1016.39 1016.64 1016.84 1017.00 1017.10 1017.18 1017.25 1017.32 1017.43 1017.57 1017.75 1017.99 1018.27 1018.57 1018.89 1019.20 1019.48 1019.72 1019.90 1020.01 1020.05 1020.03 1019.95 1019.83 1019.68 1019.51 1019.34 1019.18
1011.21 1011.74 1012.26 1012.74 1013.17 1013.54 1013.85 1014.11 1014.34 1014.56 1014.79 1015.04 1015.29 1015.56 1015.83 1016.08 1016.30 1016.48 1016.63 1016.73 1016.82 1016.89 1016.98 1017.10 1017.26 1017.47 1017.73 1018.03 1018.37 1018.72 1019.08 1019.41 1019.70 1019.95 1020.13 1020.24 1020.28 1020.26 1020.19 1020.07 1019.92 1019.75 1019.57
1011.50 1012.02 1012.51 1012.95 1013.32 1013.64 1013.89 1014.11 1014.31 1014.50 1014.70 1014.92 1015.15 1015.39 1015.64 1015.87 1016.08 1016.26 1016.41 1016.54 1016.65 1016.77 1016.89 1017.05 1017.24 1017.47 1017.75 1018.07 1018.42 1018.78 1019.15 1019.51 1019.83 1020.11 1020.34 1020.51 1020.61 1020.64 1020.62 1020.54 1020.42 1020.25 1020.06
1011.62 1012.10 1012.54 1012.93 1013.27 1013.55 1013.79 1014.00 1014.20 1014.39 1014.60 1014.82 1015.05 1015.30 1015.54 1015.78 1016.00 1016.20 1016.39 1016.56 1016.73 1016.90 1017.09 1017.29 1017.52 1017.79 1018.08 1018.41 1018.75 1019.11 1019.46 1019.81 1020.14 1020.43 1020.68 1020.88 1021.02 1021.10 1021.11 1021.07 1020.97 1020.81 1020.60
1011.48 1011.90 1012.29 1012.64 1012.96 1013.24 1013.50 1013.75 1013.99 1014.23 1014.48 1014.74 1015.01 1015.28 1015.55 1015.81 1016.07 1016.31 1016.55 1016.79 1017.03 1017.27 1017.53 1017.80 1018.09 1018.39 1018.71 1019.03 1019.36 1019.68 1020.01 1020.32 1020.62 1020.90 1021.14 1021.34 1021.50 1021.60 1021.65 1021.62 1021.54 1021.38 1021.16
1011.09 1011.44 1011.77 1012.11 1012.43 1012.75 1013.07 1013.39 1013.72 1014.05 1014.38 1014.71 1015.03 1015.35 1015.66 1015.96 1016.26 1016.55 1016.86 1017.17 1017.49 1017.82 1018.16 1018.51 1018.86 1019.20 1019.54 1019.86 1020.17 1020.46 1020.74 1021.01 1021.26 1021.50 1021.71 1021.90 1022.04 1022.14 1022.19 1022.17 1022.08 1021.91 1021.67
1010.55 1010.81 1011.10 1011.43 1011.78 1012.17 1012.59 1013.02 1013.46 1013.91 1014.34 1014.76 1015.15 1015.52 1015.87 1016.21 1016.55 1016.90 1017.26 1017.64 1018.04 1018.46 1018.89 1019.32 1019.73 1020.12 1020.48 1020.80 1021.09 1021.35 1021.58 1021.80 1022.00 1022.18 1022.35 1022.49 1022.61 1022.69 1022.71 1022.67 1022.56 1022.37 1022.11
1009.99 1010.18 1010.43 1010.77 1011.18 1011.65 1012.19 1012.75 1013.32 1013.89 1014.43 1014.93 1015.39 1015.81 1016.20 1016.57 1016.94 1017.32 1017.73 1018.17 1018.64 1019.14 1019.64 1020.14 1020.61 1021.05 1021.43 1021.76 1022.04 1022.27 1022.46 1022.62 1022.76 1022.88 1023.00 1023.09 1023.16 1023.19 1023.17 1023.10 1022.95 1022.73 1022.44
1009.59 1009.72 1009.96 1010.32 1010.79 1011.36 1012.01 1012.70 1013.40 1014.08 1014.72 1015.29 1015.80 1016.24 1016.65 1017.03 1017.41 1017.81 1018.24 1018.72 1019.24 1019.79 1020.35 1020.90 1021.43 1021.90 1022.31 1022.65 1022.91 1023.12 1023.27 1023.39 1023.48 1023.55 1023.60 1023.64 1023.65 1023.63 1023.56 1023.43 1023.24 1022.98 1022.65
1009.51 1009.60 1009.83 1010.22 1010.76 1011.42 1012.17 1012.97 1013.77 1014.53 1015.23 1015.85 1016.38 1016.83 1017.23 1017.60 1017.97 1018.36 1018.80 1019.29 1019.83 1020.41 1021.00 1021.59 1022.14 1022.64 1023.06 1023.40 1023.66 1023.85 1023.97 1024.05 1024.09 1024.12 1024.12 1024.10 1024.05 1023.97 1023.85 1023.67 1023.43 1023.13 1022.76
1009.84 1009.91 1010.15 1010.57 1011.16 1011.90 1012.72 1013.59 1014.45 1015.26 1015.99 1016.62 1017.14 1017.58 1017.95 1018.29 1018.63 1019.00 1019.41 1019.89 1020.43 1021.01 1021.61 1022.20 1022.75 1023.25 1023.67 1024.00 1024.25 1024.42 1024.52 1024.57 1024.58 1024.57 1024.52 1024.45 1024.36 1024.23 1024.05 1023.82 1023.54 1023.20 1022.80
1010.58 1010.65 1010.92 1011.37 1012.00 1012.77 1013.63 1014.53 1015.40 1016.22 1016.95 1017.56 1018.06 1018.46 1018.79 1019.09 1019.39 1019.72 1020.11 1020.56 1021.07 1021.62 1022.20 1022.76 1023.30 1023.77 1024.17 1024.48 1024.71 1024.86 1024.94 1024.97 1024.95 1024.90 1024.82 1024.72 1024.58 1024.41 1024.19 1023.92 1023.61 1023.24 1022.82
1011.65 1011.75 1012.04 1012.51 1013.16 1013.94 1014.80 1015.68 1016.54 1017.33 1018.02 1018.60 1019.05 1019.42 1019.71 1019.98 1020.24 1020.54 1020.89 1021.30 1021.77 1022.28 1022.82 1023.34 1023.82 1024.25 1024.61 1024.89 1025.08 1025.20 1025.26 1025.26 1025.23 1025.16 1025.05 1024.92 1024.76 1024.55 1024.30 1024.01 1023.67 1023.28 1022.84
1012.91 1013.04 1013.36 1013.84 1014.48 1015.25 1016.08 1016.92 1017.74 1018.48 1019.12 1019.65 1020.07 1020.40 1020.67 1020.91 1021.15 1021.43 1021.75 1022.13 1022.55 1023.01 1023.49 1023.95 1024.37 1024.74 1025.05 1025.27 1025.42 1025.51 1025.54 1025.52 1025.46 1025.37 1025.25 1025.10 1024.91 1024.68 1024.41 1024.09 1023.73 1023.33 1022.90
1014.21 1014.38 1014.72 1015.20 1015.83 1016.56 1017.34 1018.13 1018.89 1019.57 1020.16 1020.65 1021.04 1021.35 1021.60 1021.84 1022.08 1022.35 1022.65 1023.01 1023.40 1023.81 1024.22 1024.62 1024.97 1025.28 1025.51 1025.68 1025.78 1025.83 1025.82 1025.78 1025.70 1025.59 1025.45 1025.27 1025.07 1024.82 1024.53 1024.20 1023.82 1023.41 1022.97
1015.42 1015.63 1015.98 1016.47 1017.08 1017.76 1018.48 1019.21 1019.90 1020.53 1021.08 1021.53 1021.91 1022.22 1022.48 1022.73 1022.99 1023.26 1023.57 1023.91 1024.27 1024.64 1025.00 1025.33 1025.62 1025.85 1026.03 1026.14 1026.19 1026.19 1026.15 1026.07 1025.97 1025.83 1025.67 1025.47 1025.24 1024.97 1024.66 1024.31 1023.92 1023.50 1023.05
1016.46 1016.72 1017.09 1017.57 1018.15 1018.79 1019.46 1020.13 1020.76 1021.34 1021.85 1022.29 1022.66 1022.98 1023.28 1023.56 1023.84 1024.14 1024.45 1024.79 1025.13 1025.47 1025.78 1026.06 1026.29 1026.47 1026.58 1026.64 1026.64 1026.60 1026.52 1026.41 1026.27 1026.11 1025.91 1025.68 1025.42 1025.12 1024.78 1024.40 1023.99 1023.56 1023.10
1017.34 1017.63 1018.02 1018.50 1019.05 1019.66 1020.28 1020.90 1021.48 1022.03 1022.51 1022.94 1023.32 1023.66 1023.98 1024.30 1024.61 1024.94 1025.27 1025.61 1025.94 1026.25 1026.53 1026.77 1026.95 1027.08 1027.14 1027.15 1027.12 1027.04 1026.92 1026.78 1026.60 1026.40 1026.16 1025.89 1025.59 1025.24 1024.86 1024.45 1024.01 1023.55 1023.08
1018.09 1018.41 1018.82 1019.30 1019.84 1020.41 1021.00 1021.57 1022.12 1022.63 1023.10 1023.52 1023.91 1024.27 1024.62 1024.96 1025.30 1025.65 1026.00 1026.33 1026.65 1026.95 1027.20 1027.40 1027.54 1027.63 1027.66 1027.64 1027.57 1027.46 1027.32 1027.13 1026.92 1026.68 1026.40 1026.08 1025.72 1025.32 1024.89 1024.44 1023.96 1023.47 1022.97
1018.79 1019.14 1019.56 1020.05 1020.57 1021.12 1021.68 1022.22 1022.74 1023.22 1023.67 1024.09 1024.48 1024.85 1025.21 1025.57 1025.92 1026.28 1026.62 1026.95 1027.25 1027.52 1027.75 1027.92 1028.04 1028.09 1028.10 1028.05 1027.96 1027.83 1027.65 1027.44 1027.20 1026.91 1026.58 1026.21 1025.80 1025.35 1024.87 1024.36 1023.84 1023.31 1022.78
1019.50 1019.88 1020.32 1020.80 1021.32 1021.85 1022.38 1022.89 1023.38 1023.84 1024.26 1024.67 1025.05 1025.41 1025.77 1026.13 1026.48 1026.82 1027.15 1027.45 1027.73 1027.97 1028.16 1028.30 1028.39 1028.43 1028.41 1028.35 1028.24 1028.09 1027.90 1027.67 1027.40 1027.08 1026.71 1026.29 1025.83 1025.33 1024.80 1024.24 1023.67 1023.10 1022.54
1020.27 1020.67 1021.12 1021.60 1022.11 1022.62 1023.12 1023.60 1024.05 1024.48 1024.88 1025.26 1025.62 1025.97 1026.31 1026.64 1026.97 1027.28 1027.57 1027.84 1028.08 1028.28 1028.43 1028.54 1028.59 1028.61 1028.58 1028.50 1028.38 1028.23 1028.03 1027.79 1027.50 1027.17 1026.77 1026.33 1025.83 1025.29 1024.71 1024.11 1023.49 1022.89 1022.30
Thickness
5733 5731 5730 5727 5726 5725 5723 5723 5723 5723 5723 5721 5720 5719 5718 5717 5716 5715 5714 5713 5712 5712 5711 5710 5710 5709 5708 5708 5707 5706 5704 5703 5701 5703 5704 5707 5708 5709 5709 5708 5708 5706 5705
5733 5731 5730 5727 5725 5724 5723 5722 5721 5721 5721 5720 5718 5717 5716 5715 5714 5713 5712 5712 5710 5710 5709 5708 5707 5707 5705 5705 5703 5703 5702 5701 5699 5698 5700 5701 5702 5703 5703 5703 5703 5702 5701
5732 5730 5728 5726 5724 5723 5721 5720 5720 5719 5718 5718 5716 5715 5714 5713 5712 5711 5710 5709 5708 5708 5707 5705 5705 5704 5702 5701 5700 5699 5698 5698 5696 5695 5695 5696 5696 5697 5697 5697 5697 5696 5696
5730 5728 5725 5723 5722 5721 5720 5718 5718 5717 5716 5715 5714 5713 5712 5711 5710 5708 5707 5706 5705 5704 5703 5703 5702 5700 5699 5698 5697 5695 5694 5692 5691 5690 5689 5689 5689 5689 5689 5688 5688 5688 5688
5727 5725 5722 5721 5720 5718 5716 5715 5714 5713 5713 5712 5711 5710 5710 5708 5707 5706 5704 5702 5700 5699 5698 5698 5697 5696 5695 5694 5693 5691 5689 5687 5685 5684 5683 5682 5681 5681 5680 5680 5680 5680 5680
5723 5721 5719 5717 5715 5713 5712 5711 5709 5708 5708 5708 5707 5706 5705 5704 5703 5702 5700 5698 5696 5693 5692 5692 5691 5690 5690 5689 5688 5686 5685 5682 5680 5678 5676 5674 5674 5673 5672 5671 5670 5669 5669
5719 5717 5715 5713 5710 5708 5707 5705 5704 5703 5702 5701 5700 5700 5698 5697 5697 5696 5694 5692 5690 5688 5687 5685 5685 5684 5683 5682 5680 5679 5677 5675 5674 5672 5669 5668 5666 5666 5664 5662 5661 5659 5659
5713 5711 5710 5708 5705 5703 5701 5699 5698 5697 5695 5694 5692 5691 5690 5688 5689 5689 5687 5685 5682 5680 5679 5678 5677 5675 5674 5673 5671 5669 5667 5665 5664 5662 5661 5659 5658 5656 5655 5653 5651 5650 5649
5708 5706 5705 5702 5700 5697 5694 5692 5690 5689 5687 5685 5683 5682 5681 5679 5680 5680 5679 5677 5674 5671 5670 5669 5668 5666 5664 5664 5662 5659 5657 5654 5653 5651 5649 5647 5646 5644 5642 5641 5639 5637 5637
5702 5701 5699 5697 5694 5692 5688 5685 5683 5681 5677 5675 5673 5672 5670 5669 5669 5670 5669 5668 5664 5661 5659 5657 5656 5655 5653 5652 5650 5648 5644 5641 5639 5638 5636 5634 5632 5630 5628 5626 5624 5622 5620
5696 5695 5693 5690 5687 5685 5681 5678 5675 5672 5668 5665 5662 5660 5659 5658 5659 5658 5658 5657 5655 5651 5648 5645 5642 5642 5641 5639 5637 5634 5630 5628 5625 5623 5621 5619 5616 5614 5612 5610 5607 5605 5603
5688 5686 5684 5682 5680 5677 5673 5669 5666 5663 5659 5655 5652 5649 5647 5647 5646 5645 5645 5644 5642 5639 5635 5632 5630 5628 5627 5625 5622 5619 5617 5615 5612 5609 5606 5603 5600 5597 5594 5592 5590 5588 5586
5678 5676 5674 5672 5669 5667 5664 5660 5656 5653 5649 5645 5641 5638 5635 5633 5632 5632 5631 5630 5628 5625 5621 5619 5617 5615 5613 5610 5607 5604 5602 5599 5596 5592 5588 5585 5581 5579 5577 5576 5574 5571 5569
5667 5664 5662 5660 5657 5654 5651 5648 5645 5642 5638 5634 5630 5626 5623 5621 5619 5619 5618 5616 5614 5611 5608 5605 5603 5600 5597 5594 5590 5588 5585 5581 5577 5573 5570 5567 5564 5562 5561 5558 5556 5554 5552
5654 5651 5649 5646 5643 5639 5635 5631 5629 5627 5626 5623 5618 5615 5613 5609 5605 5605 5605 5603 5600 5597 5594 5590 5587 5583 5580 5576 5572 5569 5566 5563 5559 5555 5552 5550 5547 5545 5542 5539 5537 5534 5532
5642 5638 5636 5633 5630 5627 5623 5616 5612 5611 5610 5608 5606 5603 5599 5596 5594 5592 5590 5588 5585 5582 5580 5574 5568 5564 5561 5557 5554 5550 5547 5543 5540 5537 5534 5531 5529 5527 5524 5521 5518 5515 5513
5630 5626 5624 5621 5618 5615 5612 5608 5602 5596 5594 5592 5590 5588 5585 5582 5580 5578 5575 5572 5568 5566 5562 5556 5551 5547 5543 5539 5536 5532 5528 5524 5522 5519 5516 5513 5511 5508 5506 5503 5500 5498 5495
5617 5615 5612 5608 5605 5602 5599 5596 5592 5589 5583 5577 5573 5572 5570 5567 5565 5563 5561 5559 5553 5549 5544 5539 5535 5530 5526 5522 5518 5515 5511 5508 5505 5502 5499 5496 5493 5491 5489 5486 5484 5481 5479
5605 5602 5599 5596 5593 5590 5586 5583 5579 5574 5570 5565 5561 5558 5556 5554 5551 5547 5545 5542 5537 5532 5528 5523 5518 5514 5510 5506 5502 5498 5494 5491 5487 5485 5482 5479 5477 5475 5473 5471 5469 5466 5465
5594 5592 5588 5585 5581 5577 5574 5570 5566 5562 5557 5553 5549 5545 5543 5541 5537 5532 5529 5525 5521 5516 5512 5507 5502 5498 5494 5490 5486 5483 5480 5476 5473 5470 5467 5465 5463 5461 5459 5457 5456 5455 5454
5582 5580 5577 5573 5569 5565 5562 5558 5554 5550 5545 5540 5535 5532 5530 5527 5522 5517 5513 5509 5505 5501 5496 5492 5487 5483 5479 5475 5472 5469 5466 5463 5460 5457 5455 5452 5451 5449 5448 5447 5446 5445 5444
5571 5568 5565 5562 5557 5553 5549 5546 5542 5537 5533 5528 5523 5519 5515 5512 5508 5503 5498 5494 5490 5485 5481 5477 5473 5469 5466 5462 5459 5456 5454 5451 5449 5446 5444 5442 5441 5440 5439 5439 5438 5437 5437
5560 5557 5553 5549 5545 5541 5537 5533 5529 5525 5520 5515 5511 5506 5502 5498 5493 5489 5484 5480 5476 5472 5468 5465 5461 5457 5454 5451 5448 5445 5443 5441 5438 5436 5434 5434 5433 5432 5432 5431 5431 5431 5431
5550 5546 5542 5538 5534 5530 5526 5521 5517 5513 5508 5503 5498 5493 5489 5485 5480 5476 5472 5467 5463 5460 5456 5453 5450 5447 5444 5442 5440 5437 5435 5433 5431 5429 5428 5427 5426 5426 5426 5425 5425 5425 5425
5539 5535 5531 5527 5523 5518 5514 5509 5505 5500 5495 5491 5486 5481 5477 5473 5469 5464 5460 5456 5453 5449 5446 5443 5440 5438 5436 5434 5433 5431 5430 5428 5427 5425 5424 5422 5422 5421 5420 5420 5420 5421 5421
5528 5524 5519 5515 5511 5507 5502 5498 5493 5488 5484 5479 5475 5471 5466 5462 5458 5454 5450 5447 5443 5440 5437 5434 5432 5430 5429 5428 5426 5426 5425 5424 5423 5422 5420 5419 5418 5417 5416 5416 5416 5416 5417